RYR67EU LDZA-ESGG

Flight info

Callsign RYR67EU
Flight time N/A
Altitude 36000
Route OBUTI1U/04 OBUTI DCT INSAX DCT LOKVU DCT ODLIV DCT HDO M725 LUROS DCT MASOR M725 KOGIM M44 SALLO DCT NILEN L617 ARQUS
Aircraft A320/M-SDE3FGHIRWY/LB1

Departure

Time 2026-04-27 19:54
Airport Zagreb Franjo Tuđman International Airport (LDZA)

Arrival

Time N/A
Airport Göteborg Landvetter Airport (ESGG)
Time Latitude Longitude Altitude Speed Heading
2026-04-27 19:34 45.74148 16.07803 352 ft 0 kts 135°
2026-04-27 19:46 45.74149 16.07800 352 ft 2 kts 135°
2026-04-27 19:46 45.74160 16.07785 352 ft 2 kts 135°
2026-04-27 19:46 45.74170 16.07770 352 ft 2 kts 135°
2026-04-27 19:46 45.74181 16.07755 352 ft 2 kts 135°
2026-04-27 19:47 45.74192 16.07740 351 ft 2 kts 135°
2026-04-27 19:47 45.74202 16.07725 351 ft 2 kts 135°
2026-04-27 19:47 45.74213 16.07712 351 ft 2 kts 173°
2026-04-27 19:47 45.74228 16.07717 351 ft 2 kts 222°
2026-04-27 19:48 45.74235 16.07729 351 ft 0 kts 231°
2026-04-27 19:48 45.74236 16.07732 351 ft 0 kts 228°
2026-04-27 19:48 45.74237 16.07732 351 ft 0 kts 228°
2026-04-27 19:49 45.74236 16.07732 351 ft 0 kts 228°
2026-04-27 19:50 45.74226 16.07715 351 ft 9 kts 229°
2026-04-27 19:50 45.74153 16.07603 350 ft 20 kts 226°
2026-04-27 19:50 45.74068 16.07464 350 ft 16 kts 251°
2026-04-27 19:50 45.74094 16.07372 350 ft 13 kts 317°
2026-04-27 19:51 45.74152 16.07294 349 ft 14 kts 316°
2026-04-27 19:51 45.74215 16.07176 347 ft 15 kts 268°
2026-04-27 19:51 45.74148 16.07051 347 ft 16 kts 226°
2026-04-27 19:51 45.74070 16.06933 348 ft 15 kts 227°
2026-04-27 19:52 45.73996 16.06820 350 ft 15 kts 226°
2026-04-27 19:52 45.73912 16.06693 350 ft 20 kts 226°
2026-04-27 19:52 45.73814 16.06546 350 ft 20 kts 226°
2026-04-27 19:52 45.73750 16.06398 350 ft 16 kts 287°
2026-04-27 19:53 45.73896 16.06270 350 ft 10 kts 44°
2026-04-27 19:53 45.74027 16.06475 350 ft 58 kts 46°
2026-04-27 19:53 45.74456 16.07125 347 ft 119 kts 47°
2026-04-27 19:54 45.75142 16.08167 379 ft 164 kts 46°
2026-04-27 19:54 45.75923 16.09354 920 ft 164 kts 47°
2026-04-27 19:54 45.76700 16.10549 1522 ft 167 kts 48°
2026-04-27 19:54 45.77520 16.11796 2018 ft 179 kts 48°
2026-04-27 19:55 45.78413 16.13154 2440 ft 196 kts 48°
2026-04-27 19:55 45.79397 16.14651 2787 ft 219 kts 48°
2026-04-27 19:55 45.80484 16.16308 3278 ft 238 kts 47°
2026-04-27 19:55 45.81663 16.18103 3813 ft 255 kts 47°
2026-04-27 19:56 45.82888 16.19970 4577 ft 262 kts 47°
2026-04-27 19:56 45.84124 16.21860 5430 ft 266 kts 46°
2026-04-27 19:56 45.85436 16.23726 6225 ft 270 kts 35°
2026-04-27 19:56 45.87162 16.24667 6965 ft 272 kts
2026-04-27 19:57 45.89041 16.24399 7779 ft 274 kts 349°
2026-04-27 19:57 45.90916 16.23885 8573 ft 278 kts 349°
2026-04-27 19:57 45.92823 16.23431 9355 ft 280 kts 351°
2026-04-27 19:57 45.94755 16.23082 10105 ft 283 kts 352°
2026-04-27 19:58 45.96719 16.22787 10707 ft 291 kts 353°
2026-04-27 19:58 45.98798 16.22490 11053 ft 307 kts 353°
2026-04-27 19:58 46.00945 16.22192 11616 ft 313 kts 353°
2026-04-27 19:58 46.03116 16.21894 12296 ft 316 kts 353°
2026-04-27 19:59 46.05315 16.21592 12948 ft 318 kts 353°
2026-04-27 19:59 46.07520 16.21291 13596 ft 320 kts 353°
2026-04-27 19:59 46.09710 16.20991 14226 ft 322 kts 353°
2026-04-27 19:59 46.11947 16.20684 14845 ft 323 kts 353°
2026-04-27 20:00 46.14198 16.20374 15448 ft 326 kts 353°
2026-04-27 20:00 46.16428 16.20066 16006 ft 328 kts 352°
2026-04-27 20:00 46.18715 16.19751 16578 ft 331 kts 352°
2026-04-27 20:00 46.21011 16.19432 17128 ft 333 kts 352°
2026-04-27 20:01 46.23331 16.19111 17653 ft 336 kts 352°
2026-04-27 20:01 46.25644 16.18790 18169 ft 339 kts 352°
2026-04-27 20:01 46.28011 16.18462 18682 ft 342 kts 352°
2026-04-27 20:01 46.30367 16.18136 19178 ft 344 kts 352°
2026-04-27 20:02 46.32765 16.17804 19677 ft 347 kts 352°
2026-04-27 20:02 46.35155 16.17473 20183 ft 349 kts 352°
2026-04-27 20:02 46.37558 16.17140 20675 ft 350 kts 352°
2026-04-27 20:02 46.39995 16.16801 21155 ft 352 kts 352°
2026-04-27 20:03 46.42428 16.16462 21604 ft 355 kts 351°
2026-04-27 20:03 46.44897 16.16116 22063 ft 357 kts 351°
2026-04-27 20:03 46.47375 16.15769 22507 ft 359 kts 351°
2026-04-27 20:03 46.49871 16.15419 22951 ft 361 kts 351°
2026-04-27 20:04 46.52355 16.15070 23375 ft 363 kts 351°
2026-04-27 20:04 46.54881 16.14716 23800 ft 365 kts 351°
2026-04-27 20:04 46.57381 16.14363 24226 ft 366 kts 351°
2026-04-27 20:04 46.59920 16.14005 24647 ft 368 kts 351°
2026-04-27 20:05 46.62484 16.13642 25057 ft 370 kts 351°
2026-04-27 20:05 46.65037 16.13282 25432 ft 373 kts 351°
2026-04-27 20:05 46.67614 16.12920 25814 ft 375 kts 351°
2026-04-27 20:05 46.70217 16.12552 26191 ft 377 kts 351°
2026-04-27 20:06 46.72820 16.12184 26550 ft 379 kts 351°
2026-04-27 20:06 46.75454 16.11811 26912 ft 381 kts 351°
2026-04-27 20:06 46.78087 16.11440 27293 ft 382 kts 351°
2026-04-27 20:06 46.80745 16.11063 27647 ft 384 kts 351°
2026-04-27 20:07 46.83415 16.10683 27995 ft 386 kts 351°
2026-04-27 20:07 46.86062 16.10307 28259 ft 390 kts 351°
2026-04-27 20:07 46.88802 16.09915 28438 ft 395 kts 351°
2026-04-27 20:07 46.91517 16.09527 28714 ft 398 kts 351°
2026-04-27 20:08 46.94271 16.09136 29049 ft 399 kts 351°
2026-04-27 20:08 46.97053 16.08740 29386 ft 400 kts 351°
2026-04-27 20:08 46.99810 16.08347 29678 ft 402 kts 351°
2026-04-27 20:08 47.02614 16.07952 29966 ft 404 kts 351°
2026-04-27 20:09 47.05380 16.07595 30261 ft 405 kts 351°
2026-04-27 20:09 47.08219 16.07237 30535 ft 407 kts 351°
2026-04-27 20:09 47.11009 16.06885 30791 ft 409 kts 351°
2026-04-27 20:09 47.13838 16.06527 31057 ft 410 kts 351°
2026-04-27 20:10 47.16697 16.06161 31305 ft 412 kts 351°
2026-04-27 20:10 47.19550 16.05795 31566 ft 413 kts 351°
2026-04-27 20:10 47.22416 16.05429 31919 ft 412 kts 351°
2026-04-27 20:10 47.25252 16.05065 32321 ft 410 kts 351°
2026-04-27 20:11 47.28057 16.04707 32700 ft 408 kts 351°
2026-04-27 20:11 47.30870 16.04345 33056 ft 406 kts 351°
2026-04-27 20:11 47.33692 16.03981 33399 ft 405 kts 351°
2026-04-27 20:11 47.36481 16.03620 33734 ft 404 kts 351°
2026-04-27 20:12 47.39280 16.03258 34061 ft 402 kts 351°
2026-04-27 20:12 47.42057 16.02900 34354 ft 402 kts 351°
2026-04-27 20:12 47.44803 16.02543 34614 ft 402 kts 351°
2026-04-27 20:12 47.47613 16.02178 34842 ft 402 kts 351°
2026-04-27 20:13 47.50371 16.01820 35022 ft 403 kts 350°
2026-04-27 20:13 47.53151 16.01457 35182 ft 404 kts 351°
2026-04-27 20:13 47.55960 16.01091 35356 ft 405 kts 350°
2026-04-27 20:13 47.58773 16.00724 35521 ft 405 kts 351°
2026-04-27 20:14 47.61584 16.00356 35671 ft 407 kts 350°
2026-04-27 20:14 47.64363 15.99992 35821 ft 407 kts 351°
2026-04-27 20:14 47.67214 15.99619 35962 ft 408 kts 351°
2026-04-27 20:14 47.70011 15.99253 36106 ft 409 kts 350°
2026-04-27 20:15 47.75675 15.98538 36153 ft 409 kts 349°
2026-04-27 20:15 47.81334 15.97757 36153 ft 410 kts 350°
2026-04-27 20:16 47.87016 15.96992 36154 ft 410 kts 350°
2026-04-27 20:16 47.92669 15.96241 36155 ft 410 kts 350°
2026-04-27 20:17 47.98340 15.95492 36154 ft 410 kts 350°
2026-04-27 20:17 48.03077 15.94864 36155 ft 410 kts 350°
2026-04-27 20:18 48.09683 15.93987 36153 ft 410 kts 350°
2026-04-27 20:18 48.15361 15.93233 36156 ft 410 kts 350°
2026-04-27 20:19 48.21057 15.92473 36155 ft 410 kts 350°
2026-04-27 20:19 48.26722 15.91715 36158 ft 410 kts 350°
2026-04-27 20:20 48.32375 15.90960 36170 ft 410 kts 349°
2026-04-27 20:20 48.38065 15.90194 36171 ft 410 kts 350°
2026-04-27 20:21 48.43733 15.89432 36159 ft 410 kts 350°
2026-04-27 20:21 48.49392 15.88669 36152 ft 410 kts 350°
2026-04-27 20:22 48.55067 15.87905 36158 ft 410 kts 349°
2026-04-27 20:22 48.60719 15.87139 36152 ft 410 kts 349°
2026-04-27 20:23 48.66414 15.86367 36138 ft 410 kts 349°
2026-04-27 20:23 48.72063 15.85609 36136 ft 410 kts 349°
2026-04-27 20:24 48.77753 15.84825 36147 ft 410 kts 349°
2026-04-27 20:24 48.83373 15.83903 36154 ft 409 kts 346°
2026-04-27 20:25 48.88904 15.82152 36152 ft 406 kts 340°
2026-04-27 20:25 48.94260 15.79524 36150 ft 403 kts 335°
2026-04-27 20:26 48.99480 15.76497 36144 ft 403 kts 335°
2026-04-27 20:26 49.04710 15.73434 36150 ft 403 kts 335°
2026-04-27 20:27 49.09916 15.70379 36159 ft 403 kts 335°
2026-04-27 20:27 49.15126 15.67314 36157 ft 403 kts 335°
2026-04-27 20:28 49.20357 15.64233 36155 ft 403 kts 335°
2026-04-27 20:28 49.24694 15.61671 36156 ft 403 kts 335°
2026-04-27 20:29 49.30768 15.58076 36153 ft 403 kts 335°
2026-04-27 20:29 49.35975 15.54987 36158 ft 403 kts 335°
2026-04-27 20:30 49.41203 15.51880 36160 ft 402 kts 334°
2026-04-27 20:30 49.46399 15.48782 36165 ft 403 kts 335°
2026-04-27 20:31 49.51604 15.45674 36167 ft 402 kts 335°
2026-04-27 20:31 49.56817 15.42554 36171 ft 403 kts 334°
2026-04-27 20:32 49.62026 15.39430 36175 ft 403 kts 334°
2026-04-27 20:32 49.67227 15.36304 36173 ft 403 kts 334°
2026-04-27 20:33 49.72418 15.33175 36175 ft 403 kts 334°
2026-04-27 20:33 49.77611 15.30038 36174 ft 402 kts 334°
2026-04-27 20:34 49.82799 15.26896 36175 ft 402 kts 334°
2026-04-27 20:34 49.88014 15.23731 36178 ft 402 kts 334°
2026-04-27 20:35 49.93227 15.20560 36180 ft 403 kts 334°
2026-04-27 20:35 49.98420 15.17394 36181 ft 403 kts 334°
2026-04-27 20:36 50.03583 15.14239 36184 ft 402 kts 334°
2026-04-27 20:36 50.08773 15.11059 36181 ft 402 kts 334°
2026-04-27 20:37 50.13981 15.07861 36182 ft 403 kts 334°
2026-04-27 20:37 50.19210 15.04644 36183 ft 403 kts 333°
2026-04-27 20:38 50.24386 15.01451 36181 ft 403 kts 334°
2026-04-27 20:38 50.29613 14.98219 36181 ft 402 kts 334°
2026-04-27 20:39 50.34785 14.95013 36184 ft 402 kts 334°
2026-04-27 20:39 50.39975 14.91791 36185 ft 403 kts 333°
2026-04-27 20:40 50.45158 14.88427 36188 ft 402 kts 330°
2026-04-27 20:40 50.50069 14.84357 36186 ft 399 kts 325°
2026-04-27 20:41 50.54663 14.79581 36187 ft 398 kts 321°
2026-04-27 20:41 50.59158 14.74602 36186 ft 397 kts 321°
2026-04-27 20:42 50.63656 14.69600 36189 ft 397 kts 321°
2026-04-27 20:42 50.68140 14.64601 36187 ft 397 kts 321°
2026-04-27 20:43 50.72660 14.59553 36187 ft 398 kts 321°
2026-04-27 20:43 50.77145 14.54533 36186 ft 397 kts 321°
2026-04-27 20:44 50.81614 14.49517 36186 ft 397 kts 321°
2026-04-27 20:44 50.86109 14.44495 36188 ft 397 kts 323°
2026-04-27 20:45 50.90945 14.40179 36189 ft 401 kts 331°
2026-04-27 20:45 50.96160 14.37031 36189 ft 407 kts 339°
2026-04-27 20:46 51.01716 14.35125 36188 ft 412 kts 346°
2026-04-27 20:46 51.07402 14.33983 36187 ft 412 kts 347°
2026-04-27 20:47 51.13112 14.32890 36188 ft 413 kts 347°
2026-04-27 20:47 51.18800 14.31763 36192 ft 412 kts 347°
2026-04-27 20:48 51.24471 14.30633 36191 ft 413 kts 347°
2026-04-27 20:48 51.30167 14.29498 36195 ft 414 kts 347°
2026-04-27 20:49 51.35875 14.28357 36196 ft 414 kts 347°
2026-04-27 20:49 51.41558 14.27220 36200 ft 414 kts 347°
2026-04-27 20:50 51.47292 14.26071 36200 ft 415 kts 347°
2026-04-27 20:50 51.52993 14.24921 36201 ft 415 kts 347°
2026-04-27 20:51 51.58714 14.23768 36206 ft 415 kts 347°
2026-04-27 20:51 51.64408 14.22619 36209 ft 416 kts 347°
2026-04-27 20:52 51.70158 14.21457 36210 ft 416 kts 347°
2026-04-27 20:52 51.75852 14.20302 36212 ft 416 kts 347°
2026-04-27 20:53 51.81592 14.19132 36215 ft 417 kts 347°
2026-04-27 20:53 51.87313 14.17970 36216 ft 417 kts 347°
2026-04-27 20:54 51.95925 14.15977 36211 ft 418 kts 346°
2026-04-27 20:55 52.01660 14.14518 36214 ft 418 kts 346°
2026-04-27 20:55 52.07384 14.13073 36219 ft 418 kts 346°
2026-04-27 20:56 52.13080 14.11639 36210 ft 417 kts 346°
2026-04-27 20:56 52.18818 14.10190 36214 ft 418 kts 346°
2026-04-27 20:57 52.24515 14.08750 36220 ft 418 kts 346°
2026-04-27 20:57 52.30260 14.07296 36221 ft 419 kts 346°
2026-04-27 20:58 52.35995 14.05839 36216 ft 418 kts 346°
2026-04-27 20:58 52.41733 14.04378 36220 ft 418 kts 346°
2026-04-27 20:59 52.47464 14.02915 36227 ft 418 kts 346°
2026-04-27 20:59 52.53190 14.01450 36219 ft 419 kts 346°
2026-04-27 21:00 52.58925 13.99979 36232 ft 419 kts 346°
2026-04-27 21:00 52.64690 13.98496 36226 ft 419 kts 346°
2026-04-27 21:01 52.70439 13.97012 36231 ft 420 kts 346°
2026-04-27 21:01 52.76172 13.95529 36226 ft 420 kts 346°
2026-04-27 21:02 52.81932 13.94036 36230 ft 419 kts 346°
2026-04-27 21:02 52.87685 13.92541 36242 ft 420 kts 346°
2026-04-27 21:03 52.93425 13.91044 36241 ft 420 kts 346°
2026-04-27 21:03 52.99177 13.89540 36255 ft 420 kts 346°
2026-04-27 21:04 53.04929 13.88031 36264 ft 421 kts 346°
2026-04-27 21:04 53.10683 13.86519 36272 ft 420 kts 346°
2026-04-27 21:05 53.16466 13.84993 36276 ft 420 kts 347°
2026-04-27 21:05 53.22208 13.83477 36280 ft 420 kts 347°
2026-04-27 21:06 53.27989 13.81945 36279 ft 420 kts 347°
2026-04-27 21:06 53.33763 13.80410 36279 ft 420 kts 347°
2026-04-27 21:07 53.39488 13.78885 36284 ft 420 kts 347°
2026-04-27 21:07 53.45250 13.77344 36283 ft 420 kts 347°
2026-04-27 21:08 53.51000 13.75804 36284 ft 420 kts 347°
2026-04-27 21:08 53.56743 13.74263 36287 ft 420 kts 347°
2026-04-27 21:09 53.62510 13.72710 36285 ft 419 kts 347°
2026-04-27 21:09 53.68251 13.71161 36288 ft 419 kts 347°
2026-04-27 21:10 53.74001 13.69604 36293 ft 420 kts 348°
2026-04-27 21:10 53.79737 13.68046 36300 ft 420 kts 348°
2026-04-27 21:11 53.85497 13.66478 36295 ft 421 kts 348°
2026-04-27 21:11 53.88374 13.65693 36532 ft 420 kts 348°
2026-04-27 21:11 53.91261 13.64906 36414 ft 418 kts 348°
2026-04-27 21:12 53.96997 13.63392 36330 ft 418 kts 348°
2026-04-27 21:12 54.02740 13.61925 36310 ft 419 kts 348°
2026-04-27 21:13 54.08505 13.60442 36305 ft 419 kts 348°
2026-04-27 21:13 54.14267 13.58953 36303 ft 418 kts 349°
2026-04-27 21:14 54.20039 13.57455 36304 ft 418 kts 348°
2026-04-27 21:14 54.25737 13.55961 36299 ft 418 kts 348°
2026-04-27 21:15 54.31485 13.54449 36297 ft 417 kts 349°
2026-04-27 21:15 54.37178 13.53003 36292 ft 418 kts 349°
2026-04-27 21:16 54.42928 13.51559 36287 ft 418 kts 349°
2026-04-27 21:16 54.48654 13.50113 36286 ft 418 kts 349°
2026-04-27 21:17 54.54394 13.48623 36286 ft 418 kts 349°
2026-04-27 21:17 54.60107 13.47095 36286 ft 417 kts 349°
2026-04-27 21:18 54.65843 13.45560 36286 ft 416 kts 349°
2026-04-27 21:18 54.71538 13.44035 36286 ft 417 kts 349°
2026-04-27 21:19 54.77267 13.42499 36289 ft 417 kts 349°
2026-04-27 21:19 54.82954 13.40969 36284 ft 417 kts 349°
2026-04-27 21:20 54.91547 13.38847 36287 ft 417 kts 353°
2026-04-27 21:20 54.97326 13.38391 36287 ft 418 kts 356°
2026-04-27 21:21 55.03114 13.38198 36286 ft 418 kts 357°
2026-04-27 21:21 55.08897 13.38012 36284 ft 418 kts 357°
2026-04-27 21:22 55.14689 13.37819 36289 ft 418 kts 357°
2026-04-27 21:22 55.20490 13.37621 36294 ft 417 kts 357°
2026-04-27 21:23 55.26261 13.37424 36298 ft 416 kts 357°
2026-04-27 21:23 55.32011 13.37226 36299 ft 416 kts 357°
2026-04-27 21:24 55.37805 13.37027 36299 ft 416 kts 357°
2026-04-27 21:24 55.43565 13.36826 36299 ft 416 kts 357°
2026-04-27 21:25 55.49319 13.36627 36294 ft 416 kts 357°
2026-04-27 21:25 55.55072 13.36427 36295 ft 416 kts 357°
2026-04-27 21:26 55.60865 13.36224 36294 ft 416 kts 357°
2026-04-27 21:26 55.66614 13.36022 36296 ft 415 kts 357°
2026-04-27 21:27 55.72360 13.35821 36295 ft 415 kts 357°
2026-04-27 21:27 55.78110 13.35618 36296 ft 415 kts 358°
2026-04-27 21:28 55.80958 13.35517 36051 ft 416 kts 358°
2026-04-27 21:28 55.83848 13.35415 35645 ft 415 kts 358°
2026-04-27 21:28 55.86711 13.35313 35281 ft 415 kts 358°
2026-04-27 21:28 55.89614 13.35209 34927 ft 415 kts 358°
2026-04-27 21:29 55.92473 13.35107 34550 ft 416 kts 358°
2026-04-27 21:29 55.95374 13.35003 34144 ft 417 kts 358°
2026-04-27 21:29 55.98296 13.34898 33741 ft 417 kts 357°
2026-04-27 21:29 56.01228 13.34792 33328 ft 417 kts 357°
2026-04-27 21:30 56.04111 13.34690 32920 ft 418 kts 357°
2026-04-27 21:30 56.07043 13.34585 32502 ft 419 kts 357°
2026-04-27 21:30 56.09936 13.34481 32095 ft 421 kts 357°
2026-04-27 21:30 56.12864 13.34377 31682 ft 422 kts 357°
2026-04-27 21:31 56.15760 13.34273 31274 ft 422 kts 357°
2026-04-27 21:31 56.18714 13.34167 30834 ft 423 kts 357°
2026-04-27 21:31 56.21656 13.34060 30376 ft 423 kts 357°
2026-04-27 21:31 56.24600 13.33953 29917 ft 420 kts 357°
2026-04-27 21:32 56.27479 13.33851 29467 ft 415 kts 357°
2026-04-27 21:32 56.30341 13.33749 29013 ft 412 kts 357°
2026-04-27 21:32 56.33158 13.33648 28567 ft 408 kts 357°
2026-04-27 21:32 56.35981 13.33547 28112 ft 405 kts 357°
2026-04-27 21:33 56.38805 13.33449 27656 ft 402 kts 357°
2026-04-27 21:33 56.41582 13.33351 27203 ft 399 kts 357°
2026-04-27 21:33 56.44356 13.33254 26748 ft 396 kts 357°
2026-04-27 21:33 56.47065 13.33157 26301 ft 393 kts 357°
2026-04-27 21:34 56.49780 13.33058 25849 ft 390 kts 357°
2026-04-27 21:34 56.52467 13.32961 25403 ft 387 kts 357°
2026-04-27 21:34 56.55153 13.32862 24960 ft 384 kts 357°
2026-04-27 21:34 56.57818 13.32765 24512 ft 380 kts 357°
2026-04-27 21:35 56.60464 13.32668 24070 ft 377 kts 357°
2026-04-27 21:35 56.63065 13.32573 23630 ft 374 kts 357°
2026-04-27 21:35 56.65662 13.32476 23190 ft 371 kts 357°
2026-04-27 21:35 56.68262 13.32381 22743 ft 369 kts 357°
2026-04-27 21:36 56.70815 13.32125 22299 ft 365 kts 351°
2026-04-27 21:36 56.73261 13.31108 21863 ft 363 kts 341°
2026-04-27 21:36 56.75592 13.29314 21419 ft 360 kts 333°
2026-04-27 21:36 56.77782 13.27070 20982 ft 358 kts 330°
2026-04-27 21:37 56.79907 13.24803 20546 ft 356 kts 330°
2026-04-27 21:37 56.82014 13.22545 20113 ft 353 kts 330°
2026-04-27 21:37 56.84112 13.20294 19679 ft 351 kts 330°
2026-04-27 21:37 56.86228 13.18029 19239 ft 349 kts 330°
2026-04-27 21:38 56.88295 13.15814 18806 ft 347 kts 330°
2026-04-27 21:38 56.90347 13.13615 18375 ft 344 kts 330°
2026-04-27 21:38 56.92396 13.11417 17944 ft 342 kts 330°
2026-04-27 21:38 56.94455 13.09207 17509 ft 340 kts 330°
2026-04-27 21:39 56.96467 13.07044 17079 ft 338 kts 330°
2026-04-27 21:39 56.98486 13.04871 16639 ft 335 kts 330°
2026-04-27 21:39 57.00473 13.02730 16208 ft 334 kts 330°
2026-04-27 21:39 57.02450 13.00596 15792 ft 331 kts 330°
2026-04-27 21:40 57.04415 12.98471 15365 ft 329 kts 330°
2026-04-27 21:40 57.06390 12.96334 14921 ft 327 kts 330°
2026-04-27 21:40 57.08278 12.94061 14464 ft 327 kts 321°
2026-04-27 21:40 57.09761 12.90972 14006 ft 329 kts 306°
2026-04-27 21:41 57.10772 12.87143 13537 ft 332 kts 295°
2026-04-27 21:41 57.11576 12.83204 13072 ft 332 kts 294°
2026-04-27 21:41 57.12368 12.79221 12588 ft 332 kts 294°
2026-04-27 21:41 57.13152 12.75287 12099 ft 331 kts 294°
2026-04-27 21:42 57.13945 12.71309 11639 ft 330 kts 294°
2026-04-27 21:42 57.14730 12.67389 11163 ft 329 kts 294°
2026-04-27 21:42 57.15517 12.63452 10809 ft 324 kts 294°
2026-04-27 21:42 57.16270 12.59666 10671 ft 312 kts 295°
2026-04-27 21:43 57.17010 12.55949 10521 ft 301 kts 295°
2026-04-27 21:43 57.17774 12.52473 10395 ft 287 kts 303°
2026-04-27 21:43 57.18932 12.49621 10182 ft 275 kts 320°
2026-04-27 21:43 57.20340 12.47397 9881 ft 267 kts 324°
2026-04-27 21:44 57.21765 12.45293 9354 ft 260 kts 325°
2026-04-27 21:44 57.23168 12.43221 8833 ft 253 kts 325°
2026-04-27 21:44 57.24504 12.41232 8391 ft 248 kts 324°
2026-04-27 21:44 57.25838 12.39238 7987 ft 247 kts 324°
2026-04-27 21:45 57.27157 12.37257 7588 ft 243 kts 325°
2026-04-27 21:45 57.28457 12.35298 7274 ft 239 kts 325°
2026-04-27 21:45 57.29729 12.33377 7028 ft 235 kts 324°
2026-04-27 21:45 57.30990 12.31472 6789 ft 232 kts 324°
2026-04-27 21:46 57.32229 12.29600 6554 ft 228 kts 324°
2026-04-27 21:46 57.33438 12.27768 6334 ft 224 kts 324°
2026-04-27 21:46 57.34632 12.25959 6116 ft 220 kts 325°
2026-04-27 21:46 57.35813 12.24169 5896 ft 217 kts 325°
2026-04-27 21:47 57.36964 12.22424 5693 ft 214 kts 325°